Powrót do katalogu

COSMOS 1691 DEB

AktywnyPO
NORAD 43315·DEBRIS·🇷🇺 Russia

Wystrzelony Oct 9, 1985 z Plesetsk Cosmodrome

Loading…

Następne Przeloty (najbliższe 24 godziny)

TLE

ŚwieżeSource: Space-Track

Epoka: Sep 13, 2026, 06:49 UTC

1 43315U 85094Z   26256.28470636  .00000183  00000-0  87337-3 0  9992
2 43315  82.5592  98.3937 0019798 127.9177 232.3711 12.69298148593024

Śledź COSMOS 1691 DEB w czasie rzeczywistym z AllMySat

Download on the App Store